Location: Aalen
(48.8330°N, 10.1000°E)
Time: 18:03:52
(UTC+02:00)

Transit 4A - Pass Details

Date: 01 August 2021
Orbit: 871 x 974 km, 66.8° (Epoch: 16 September)

Event Time Altitude Azimuth Distance (km) Brightness Sun altitude
Rises 02:16:32 0° 230° (SW) 3,486 - -22.2°
Reaches altitude 10° 02:19:06 10° 235° (SW) 2,538 - -22.1°
Exits shadow 02:21:54 28° 248° (WSW) 1,591 8.8 -22.0°
Maximum altitude 02:24:50 53° 312° (NW) 1,066 8.3 -21.9°
Drops below altitude 10° 02:30:32 10° 30° (NNE) 2,528 11.3 -21.6°
Sets 02:33:05 0° 35° (NE) 3,471 12.2 -21.5°
